Location: Melbourne
(37.8170°S, 144.9670°E)
Time: 15:47:10
(UTC+10:00)

ISS - All Passes

Search period start: 17 August 2017 00:00
Search period end: 27 August 2017 00:00
Orbit: 401 x 408 km, 51.6° (Epoch: 17 August)

Date Brightness Start Highest point End Pass type
(mag) Time Alt. Az. Time Alt. Az. Time Alt. Az.
17 Aug - 01:37:42 10° SW 01:39:09 12° SSW 01:40:37 10° S night (unlit)
17 Aug - 04:52:28 10° SSW 04:54:37 16° SSE 04:56:45 10° ESE visible
17 Aug - 06:28:08 10° SW 06:31:31 90° NW 06:34:51 10° NE visible
17 Aug - 23:06:28 10° NW 23:09:47 77° NE 23:13:07 10° SE night (unlit)
18 Aug - 00:44:21 10° WSW 00:46:37 17° SSW 00:48:53 10° SSE night (unlit)
18 Aug - 04:00:47 10° S 04:02:03 12° SSE 04:03:19 10° SE visible
18 Aug - 05:35:58 10° SW 05:39:14 45° SE 05:42:28 10° ENE visible
18 Aug - 07:13:14 10° W 07:15:26 17° NW 07:17:39 10° N daylight
18 Aug - 22:14:33 10° NNW 22:17:35 36° NE 22:20:41 10° ESE night (unlit)
18 Aug - 23:51:20 10° W 23:54:08 25° SSW 23:56:58 10° SSE night (unlit)
19 Aug - 04:43:55 10° SSW 04:46:50 27° SSE 04:49:45 10° E visible
19 Aug - 06:20:18 10° WSW 06:23:21 33° NW 06:26:22 10° NNE visible
19 Aug - 21:23:09 10° N 21:25:29 18° NE 21:27:50 10° E night (unlit)
19 Aug - 22:58:34 10° WNW 23:01:44 41° SW 23:04:56 10° SE night (unlit)
20 Aug - 00:37:54 10° SW 00:38:56 11° SSW 00:39:59 10° S night (unlit)
20 Aug - 03:51:59 10° SSW 03:54:22 18° SSE 03:56:44 10° ESE visible
20 Aug - 05:27:49 10° SW 05:31:09 70° NW 05:34:28 10° NE visible
20 Aug - 22:06:06 10° NW 22:09:24 82° SW 22:12:45 10° SE night (unlit)
20 Aug - 23:44:20 10° WSW 23:46:20 15° SSW 23:48:21 10° SSE night (unlit)
21 Aug - 03:00:11 10° S 03:01:47 13° SSE 03:03:24 10° SE night (unlit)
21 Aug - 04:35:32 10° SW 04:38:52 57° SE 04:42:09 10° ENE visible
21 Aug - 06:13:21 10° W 06:14:58 13° NW 06:16:36 10° NNW visible
21 Aug - 21:13:58 10° NNW 21:17:09 47° NE 21:20:22 10° ESE night (unlit)
21 Aug - 22:51:10 10° W 22:53:47 21° SSW 22:56:27 10° SSE night (unlit)
22 Aug - 03:43:25 10° SSW 03:46:28 31° SSE 03:49:31 10° E visible
22 Aug - 05:20:02 10° WSW 05:22:52 26° NW 05:25:41 10° N visible
22 Aug - 20:22:19 10° N 20:24:58 23° NE 20:27:40 10° ESE night (unlit)
22 Aug - 21:58:15 10° W 22:01:19 34° SSW 22:04:25 10° SE night (unlit)
22 Aug - 23:38:13 10° SSW 23:38:36 10° SSW 23:39:01 10° S night (unlit)
23 Aug - 02:51:24 10° SSW 02:53:59 20° SSE 02:56:33 10° ESE night (unlit)
23 Aug - 04:27:24 10° WSW 04:30:40 53° NW 04:33:55 10° NE visible
23 Aug - 19:31:43 10° NNE 19:32:52 11° NE 19:34:01 10° ENE visible
23 Aug - 21:05:39 10° WNW 21:08:55 64° SW 21:12:15 10° SE night (unlit)
23 Aug - 22:44:14 10° SW 22:45:56 13° SSW 22:47:40 10° S night (unlit)
24 Aug - 01:59:30 10° SSW 02:01:24 14° SSE 02:03:18 10° SE night (unlit)
24 Aug - 03:35:01 10° SW 03:38:22 73° SE 03:41:42 10° NE night (unlit)
24 Aug - 05:14:10 10° WNW 05:14:24 10° NW 05:14:36 10° NW visible
24 Aug - 20:13:21 10° NW 20:16:36 61° NE 20:19:54 10° ESE visible
24 Aug - 21:50:54 10° WSW 21:53:20 19° SSW 21:55:47 10° SSE night (unlit)
25 Aug - 01:07:55 10° S 01:08:44 11° SSE 01:09:34 10° SSE night (unlit)
25 Aug - 02:42:48 10° SW 02:45:59 38° SE 02:49:07 10° ENE night (unlit)
25 Aug - 04:19:44 10° W 04:22:16 20° NW 04:24:48 10° N night (unlit)
25 Aug - 19:21:28 10° NNW 19:24:21 29° NE 19:27:18 10° ESE visible
25 Aug - 20:57:52 10° W 21:00:48 28° SSW 21:03:46 10° SSE visible
26 Aug - 01:50:43 10° SSW 01:53:29 23° SSE 01:56:14 10° E night (unlit)
26 Aug - 03:26:54 10° WSW 03:30:04 41° NW 03:33:13 10° NNE night (unlit)
26 Aug - 18:30:17 10° NNE 18:32:11 15° NE 18:34:06 10° E visible
26 Aug - 20:05:07 10° WNW 20:08:20 50° SW 20:11:36 10° SE visible
26 Aug - 21:44:04 10° SW 21:45:27 12° SSW 21:46:50 10° S night (unlit)
